Volver al catálogo

STARLINK-35396

ActivoComunicacionesVLEO
NORAD 65828·PAYLOAD·🇺🇸 United States

Lanzado Sep 29, 2025 desde Vandenberg Space Force Base

Loading…

Próximos Pases (próximas 24 horas)

TLE

ActualizadoSource: CelesTrak SupGP

Época: Sep 14, 2026, 20:40 UTC

1 65828C 25221F   26257.86159722  .00020437  00000+0  60400-3 0  2578
2 65828  53.1570 286.1011 0001145  94.4184  15.4200 15.34370524    19

Sigue STARLINK-35396 en tiempo real con AllMySat

Download on the App Store